Погода в Джизаке

Узбекистан     40˚07′13″N   67˚49′42″E
темп.,
°C
ветер,
м/с
пор.,
м/с
влажн.,
%
обл.,
%
осадки,
мм/ч
давл.,
гПа
погр.,
м
16 января, сб
сб1623:00+9˚ююз33260 0.0 101522
02:00+9˚ююз33220 0.0 101522
05:00+9˚ю341918 0.0 101523
08:00+10˚ю4415100 0.0 101623
11:00+16˚ююз331884 0.0 101745
14:00+18˚зюз461867 0.0 1016507
17:00+12˚зюз443367 0.0 101770
20:00+8˚юз344521 0.0 101852
17 января, вс
вс1723:00+7˚юз224010 0.0 101922
02:00+6˚вюв22400 0.0 101822
05:00+5˚в22400 0.0 101722
08:00+4˚в12440 0.0 101722
11:00+8˚св23370 0.0 1016207
14:00+10˚св34330 0.0 1012362
17:00+8˚св123910 0.0 101122
20:00+5˚з114387 0.0 101222
18 января, пн
пн1823:00+5˚зюз224193 0.0 101122
02:00+5˚юз3338100 0.0 101122
05:00+7˚ююз2326100 0.0 101022
08:00+8˚ю2221100 0.0 101122
11:00+14˚ююз1220100 0.0 101191
14:00+16˚юз91725100 0.0 10101983
17:00+13˚ю223686 0.0 101229
20:00+9˚ю445260 0.0 101366
19 января, вт
вт1923:00+9˚ююз344180 0.0 101443
02:00+8˚ю334296 0.0 101529
05:00+7˚ююз334696 0.0 101522
08:00+7˚юз334678 0.0 101724
11:00+12˚юз233489 0.0 1017273
14:00+15˚зюз4630100 0.0 10171258
17:00+12˚ююз124099 0.0 101827
20:00+9˚юз234782 0.0 102025
20 января, ср
ср2023:00+8˚ююз225089 0.0 102222
02:00+8˚ю22500 0.0 102222
05:00+7˚ююз22470 0.0 102122
08:00+7˚юв223977 0.0 102122
11:00+12˚в112889 0.0 1018138
14:00+14˚всв332547 0.0 1015325
17:00+12˚св113224 0.0 101523
20:00+10˚ююз33310 0.0 101623